User: anonymous   Login
Location: Caltech
(34.1382°N, 118.1253°W)
Time: 03:40:11
(UTC-07:00)
Language:

Cosmos 1937 Rocket - Orbit

View from above orbital plane
View from above orbital plane
View from above satellite
View from above satellite

Ground track
Ground track

The orbit data is extracted from the following two-line orbital elements,

1 19039U 88029B   16150.87313029  .00000033  00000-0  19571-4 0  9998
2 19039  74.0484 285.2635 0023925 195.8518 279.6134 14.38312667475740
Epoch (UTC): 29 May 2016 20:57:18
Eccentricity: 0.0023925
inclination: 74.0484°
perigee height: 747 km
apogee height: 781 km
right ascension of ascending node: 285.2635°
argument of perigee: 195.8518°
revolutions per day: 14.38312667
mean anomaly at epoch: 279.6134°
orbit number at epoch: 47574

The dashed part of the orbit path shows where the satellite is in the earth's shadow,  

DLR